Marianna, FL

8:22 AM CST on February 22, 2018 (GMT -0600)
Marianna Municipal

Weather History for KMAI - February, 2012

Change the Weather History Date:

Wednesday, February 15, 2012

  Actual Average Record
Temperature  
Mean Temperature 61 °F 55 °F  
Max Temperature 71 °F 66 °F 79 °F (2001)
Min Temperature 51 °F 43 °F 28 °F (1999)
Degree Days  
Heating Degree Days 4    
Month to date heating degree days  
Since 1 July heating degree days  
Cooling Degree Days 0    
Month to date cooling degree days  
Year to date cooling degree days  
Growing Degree Days 11 (Base 50)    
Moisture  
Dew Point 54 °F    
Average Humidity 84    
Maximum Humidity 100    
Minimum Humidity 49    
Precipitation  
Precipitation 0.00 in 0.17 in 0.96 in (2016)
Month to date precipitation 2.54  
Year to date precipitation 7.58  
Sea Level Pressure  
Sea Level Pressure 30.14 in    
Wind  
Wind Speed 4 mph (ENE)    
Max Wind Speed 10 mph    
Max Gust Speed -    
Visibility 8 miles    
Events      
T = Trace of Precipitation, MM = Missing Value Source: NWS Daily Summary

Daily Weather History Graph

Daily Weather History Graph

Search for Another Location

Airport or City:

Trip Planner

Search our weather history database for the weather conditions in past years. The results will help you decide how hot, cold, wet, or windy it might be!

Date:

Astronomy

Feb. 15, 2012 Rise Set
Actual Time 6:22 AM CST 5:28 PM CST
Civil Twilight 5:57 AM CST 5:52 PM CST
Nautical Twilight 5:28 AM CST 6:21 PM CST
Astronomical Twilight 5:00 AM CST 6:49 PM CST
Moon 1:02 AM CST (2/15) 11:35 AM CST (2/15)
Length of Visible Light 11h 55m
Length of Day
11h 06m
Last Quarter, 38% of the Moon is Illuminated
Feb 15
Last Quarter
Feb 21
New
Feb 29
First Quarter
Mar 8
Full
Mar 14
Last Quarter

Hourly Weather History & Observations

Time (CST) Temp. Dew Point Humidity Pressure Visibility Wind Dir Wind Speed Gust Speed Precip Events Conditions
12:53 AM 53.1 °F 52.0 °F 96% 30.10 in 4.0 mi NNE 4.6 mph - N/A   Overcast
1:53 AM 53.1 °F 53.1 °F 100% 30.11 in 3.0 mi North 4.6 mph - N/A   Overcast
2:53 AM 53.1 °F 52.0 °F 96% 30.11 in 4.0 mi NNE 4.6 mph - N/A   Overcast
3:49 AM 51.8 °F 51.8 °F 100% 30.12 in 2.5 mi North 4.6 mph - N/A   Overcast
3:53 AM 52.0 °F 51.1 °F 97% 30.12 in 3.0 mi North 6.9 mph - N/A   Overcast
4:53 AM 52.0 °F 51.1 °F 97% 30.14 in 4.0 mi NE 4.6 mph - N/A   Overcast
5:53 AM 52.0 °F 51.1 °F 97% 30.15 in 4.0 mi Calm Calm - N/A   Overcast
6:36 AM 51.8 °F 51.8 °F 100% 30.17 in 2.0 mi Calm Calm - N/A   Overcast
6:53 AM 52.0 °F 51.1 °F 97% 30.17 in 2.5 mi Calm Calm - N/A   Overcast
7:23 AM 53.6 °F 51.8 °F 94% 30.18 in 3.0 mi Calm Calm - N/A   Overcast
7:53 AM 53.1 °F 51.1 °F 93% 30.19 in 5.0 mi ENE 3.5 mph - N/A   Overcast
8:20 AM 53.6 °F 51.8 °F 94% 30.18 in 9.0 mi East 8.1 mph - N/A   Overcast
8:53 AM 55.0 °F 52.0 °F 89% 30.19 in 10.0 mi East 8.1 mph - N/A   Overcast
9:31 AM 57.2 °F 51.8 °F 82% 30.19 in 10.0 mi SE 5.8 mph - N/A   Overcast
9:53 AM 57.9 °F 52.0 °F 81% 30.18 in 10.0 mi East 4.6 mph - N/A   Scattered Clouds
10:53 AM 63.0 °F 53.1 °F 70% 30.18 in 10.0 mi NE 4.6 mph - N/A   Partly Cloudy
11:53 AM 66.0 °F 54.0 °F 65% 30.17 in 10.0 mi NNW 4.6 mph - N/A   Clear
1:53 PM 71.1 °F 51.1 °F 49% 30.13 in 10.0 mi Calm Calm - N/A   Clear
2:53 PM 71.1 °F 51.1 °F 49% 30.12 in 10.0 mi Calm Calm - N/A   Clear
3:53 PM 71.1 °F 51.1 °F 49% 30.12 in 10.0 mi Calm Calm - N/A   Clear
4:53 PM 70.0 °F 53.1 °F 55% 30.11 in 10.0 mi Calm Calm - N/A   Clear
5:53 PM 64.0 °F 55.0 °F 73% 30.12 in 10.0 mi South 3.5 mph - N/A   Clear
6:53 PM 63.0 °F 55.9 °F 78% 30.13 in 10.0 mi Calm Calm - N/A   Clear
7:53 PM 62.1 °F 57.9 °F 86% 30.14 in 10.0 mi Calm Calm - N/A   Clear
8:53 PM 63.0 °F 57.9 °F 84% 30.13 in 10.0 mi SSE 4.6 mph - N/A   Partly Cloudy
9:34 PM 62.6 °F 57.2 °F 82% 30.13 in 10.0 mi Calm Calm - N/A   Mostly Cloudy
9:53 PM 63.0 °F 60.1 °F 90% 30.13 in 10.0 mi Calm Calm - N/A   Overcast
10:04 PM 64.4 °F 60.8 °F 88% 30.14 in 10.0 mi Calm Calm - N/A   Overcast
10:53 PM 64.9 °F 63.0 °F 93% 30.12 in 10.0 mi SSE 3.5 mph - N/A   Overcast
11:53 PM 66.9 °F 64.0 °F 90% 30.11 in 10.0 mi South 10.4 mph - N/A   Overcast